THORAD AGENA D DEB, 42512

Orbit data source: Space-Track

THORAD AGENA D DEB, 42512 is space debris in SSO originally from a launch on Wed, 08 Apr 1970 UTC launched from the Air Force Western Test Range (AFWTR). Debris objects in space refer to the collection of defunct objects orbiting the Earth. Examples of debris include non-operational satellites, rocket bodies, and fragments generated from explosions, collisions, or faulty payload assembly.

Loading next visibility...
Identifier
42512, 1970-025RS
Orbit
SSO
Country
Flag of USUS
Related business
Manufacturer
Unknown
Mission
Spacecraft
Bus & Motor
Unknown
Mass
Unknown
Launch date (UTC)
1970-04-08 (56 years ago)
Launch vehicle
Unknown
Launch site
Air Force Western Test Range (AFWTR)
Object type
Payload
Rocket body
Debris
Shape & HBR
Unknown shape, 0.1 m
Radar Cross Section
Small (<0.1 m²)

Expand to show TLE details & history
Last TLE update: 5 days ago

TLE from 5 days ago
0 THORAD AGENA D DEB
1 42512U 70025RS  26203.52704525 -.00000017  00000-0  46703-4 0  9994
2 42512  99.8115 100.3307 0006769 289.0643  70.9754 13.43834355621081
Epoch: 2026-07-22T12:38Z
TLE epoch observation values (Epoch: 2026-07-22T12:38:56.709Z)
Latitude
-0.00004°
Longitude
-29.68669°
Altitude
1,096.157 km
Speed
7.305 km/s
True Right ascension
06h 41m 19s
True Declination
0° 00' 00"
Sunlit
Object was in daylight at epoch
Visualization orbit readout
Latitude
Unknown
Longitude
Unknown
Altitude
Unknown
Speed
Unknown
Apparent Right ascension
Unknown
Apparent Declination
Unknown
Sunlit
N/A
Visualization observer readout
Local Sidereal Time
03:07:23
Azimuth
Unknown
Elevation
Unknown
Doppler factor
Unknown
Orbital elements
Apogee altitude
1,097.402 km
Perigee altitude
1,087.288 km
Semi-major axis
7,470.482 km
Eccentricity
0.00068
Inclination
99.8115°
RAAN
100.3307°
Arg. of periapsis
289.0643°
True anomaly
71.04875°
Mean anomaly
70.9754°
Eccentric anomaly
71.01207°
Mean motion
3.3614 °/min
Orbital period
107.1 mins
BSTAR
0.000046703
Loading maneuver chart data...
Computing Atmospheric mass density...

Documentation

Showing up to 5 results
|